This is the latest recevied weather packets stored in our database for station/object KD2SIG. If no packets are shown the sender has not sent any weather packets the latest 10 day(s).
| Time | Temp. | Humidity | Pressure | Rain* | Wind** | Luminosity | Snow |
|---|---|---|---|---|---|---|---|
| 1788541594 | 24.44° C | 71% | 1014.1 hPa | 0 mm | - | 771 W/m² | - |
| 1788541289 | 25° C | 69% | 1014.3 hPa | 0 mm | - | 341 W/m² | - |
| 1788540988 | 25° C | 70% | 1014.3 hPa | 0 mm | - | 750 W/m² | - |
| 1788540682 | 23.89° C | 72% | 1014.4 hPa | 0 mm | - | 729 W/m² | - |
| 1788540382 | 23.89° C | 71% | 1014.4 hPa | 0 mm | - | 166 W/m² | - |
| 1788540078 | 23.89° C | 72% | 1014.3 hPa | 0 mm | - | 716 W/m² | - |
| 1788539779 | 23.89° C | 70% | 1014.4 hPa | 0 mm | - | 165 W/m² | - |
| 1788539468 | 23.89° C | 74% | 1014.3 hPa | 0 mm | - | 178 W/m² | - |
| 1788539162 | 22.78° C | 73% | 1014.3 hPa | 0 mm | - | 128 W/m² | - |
| 1788538858 | 23.33° C | 71% | 1014.3 hPa | 0 mm | - | 163 W/m² | - |
| 1788538552 | 24.44° C | 67% | 1014.3 hPa | 0 mm | - | 159 W/m² | - |
| 1788538248 | 24.44° C | 71% | 1014.6 hPa | 0 mm | - | 140 W/m² | - |
| 1788537943 | 24.44° C | 70% | 1014.5 hPa | 0 mm | - | 695 W/m² | - |
| 1788537639 | 24.44° C | 71% | 1014.4 hPa | 0 mm | - | 428 W/m² | - |
| 1788537338 | 23.89° C | 71% | 1014.7 hPa | 0 mm | - | 645 W/m² | - |
| 1788537032 | 23.89° C | 71% | 1014.6 hPa | 0 mm | - | 701 W/m² | - |
| 1788536746 | 23.89° C | 73% | 1014.4 hPa | 0 mm | - | 719 W/m² | - |
| 1788536421 | 23.89° C | 71% | 1014.6 hPa | 0 mm | - | 747 W/m² | - |
| 1788536121 | 23.89° C | 72% | 1014.3 hPa | 0 mm | - | 704 W/m² | - |
| 1788535817 | 23.89° C | 72% | 1014.3 hPa | 0 mm | - | 720 W/m² | - |
| 1788535513 | 23.89° C | 71% | 1014.5 hPa | 0 mm | - | 757 W/m² | - |
| 1788535222 | 23.89° C | 71% | 1014.3 hPa | 0 mm | - | 698 W/m² | - |
| 1788534903 | 23.89° C | 74% | 1014.3 hPa | 0 mm | - | 672 W/m² | - |
| 1788534596 | 23.33° C | 72% | 1014.4 hPa | 0 mm | - | 690 W/m² | - |
| 1788534291 | 23.89° C | 72% | 1014.8 hPa | 0 mm | - | 692 W/m² | - |
* Rain latest hour (hover to see other rain measurements)
** Current wind speed in m/s (hover to see current wind gust speed)